Time,TemperatureF,DewpointF,PressureIn,WindDirection,WindDirectionDegrees,WindSpeedMPH,WindSpeedGustMPH,Humidity,HourlyPrecipIn,Conditions,Clouds,dailyrainin,SoftwareType,DateUTC
2013-03-08 00:04:00,32.5,24.8,30.12,NNW,333,0.0,0.0,73,0.00,,,0.00,LWC V2.00 B2112,2013-03-08 05:04:00,
2013-03-08 00:09:00,32.2,24.5,30.12,NNW,333,0.0,0.0,73,0.00,,,0.00,LWC V2.00 B2112,2013-03-08 05:09:00,
2013-03-08 00:14:00,31.9,24.6,30.12,NNW,333,0.0,0.0,74,0.00,,,0.00,LWC V2.00 B2112,2013-03-08 05:14:00,
2013-03-08 00:19:00,31.8,24.5,30.12,NNW,333,0.0,0.0,74,0.00,,,0.00,LWC V2.00 B2112,2013-03-08 05:19:00,
2013-03-08 00:24:00,31.6,24.6,30.12,NNW,333,0.0,0.0,75,0.00,,,0.00,LWC V2.00 B2112,2013-03-08 05:24:00,
2013-03-08 00:29:00,31.5,24.5,30.12,NNW,333,0.0,0.0,75,0.00,,,0.00,LWC V2.00 B2112,2013-03-08 05:29:00,
2013-03-08 00:34:00,31.3,24.3,30.12,NNW,333,0.0,0.0,75,0.00,,,0.00,LWC V2.00 B2112,2013-03-08 05:34:00,
2013-03-08 00:39:00,31.3,24.3,30.12,NNW,333,0.0,0.0,75,0.00,,,0.00,LWC V2.00 B2112,2013-03-08 05:39:00,
2013-03-08 00:44:00,31.3,24.3,30.12,NNW,333,0.0,0.0,75,0.00,,,0.00,LWC V2.00 B2112,2013-03-08 05:44:00,
2013-03-08 00:49:00,31.3,24.3,30.12,NNW,333,0.0,0.0,75,0.00,,,0.00,LWC V2.00 B2112,2013-03-08 05:49:00,
2013-03-08 00:54:00,31.2,24.2,30.12,NNW,333,0.0,0.0,75,0.00,,,0.00,LWC V2.00 B2112,2013-03-08 05:54:00,
2013-03-08 00:59:00,31.0,24.0,30.12,NNW,333,0.0,0.0,75,0.00,,,0.00,LWC V2.00 B2112,2013-03-08 05:59:00,
2013-03-08 01:04:00,31.0,24.0,30.12,NNW,333,0.0,0.0,75,0.00,,,0.00,LWC V2.00 B2112,2013-03-08 06:04:00,
2013-03-08 01:09:00,31.0,24.0,30.12,NNW,333,0.0,0.0,75,0.00,,,0.00,LWC V2.00 B2112,2013-03-08 06:09:00,
2013-03-08 01:14:00,31.0,24.0,30.12,NNW,333,0.0,0.0,75,0.00,,,0.00,LWC V2.00 B2112,2013-03-08 06:14:00,
2013-03-08 01:19:00,30.9,23.9,30.12,NNW,333,0.0,0.0,75,0.00,,,0.00,LWC V2.00 B2112,2013-03-08 06:19:00,
2013-03-08 01:24:00,30.7,23.7,30.12,NNW,333,0.0,0.0,75,0.00,,,0.00,LWC V2.00 B2112,2013-03-08 06:24:00,
2013-03-08 01:29:00,30.7,23.7,30.12,NNW,333,0.0,0.0,75,0.00,,,0.00,LWC V2.00 B2112,2013-03-08 06:29:00,
2013-03-08 01:34:00,30.6,23.6,30.12,NNW,333,0.0,0.0,75,0.00,,,0.00,LWC V2.00 B2112,2013-03-08 06:34:00,
2013-03-08 01:39:00,30.4,23.8,30.12,NNW,333,0.0,0.0,76,0.00,,,0.00,LWC V2.00 B2112,2013-03-08 06:39:00,
2013-03-08 01:44:00,30.3,23.7,30.12,NNW,333,0.0,0.0,76,0.00,,,0.00,LWC V2.00 B2112,2013-03-08 06:44:00,
2013-03-08 01:49:00,30.3,23.7,30.12,NNW,333,0.0,0.0,76,0.00,,,0.00,LWC V2.00 B2112,2013-03-08 06:49:00,
2013-03-08 01:54:00,30.0,23.7,30.12,NNW,333,0.0,0.0,77,0.00,,,0.00,LWC V2.00 B2112,2013-03-08 06:54:00,
2013-03-08 01:59:00,29.8,23.5,30.12,NNW,333,0.0,0.0,77,0.00,,,0.00,LWC V2.00 B2112,2013-03-08 06:59:00,
2013-03-08 02:04:00,29.7,23.4,30.12,NNW,333,0.0,0.0,77,0.00,,,0.00,LWC V2.00 B2112,2013-03-08 07:04:00,
2013-03-08 02:09:00,29.7,23.7,30.12,NNW,333,0.0,0.0,78,0.00,,,0.00,LWC V2.00 B2112,2013-03-08 07:09:00,
2013-03-08 02:14:00,29.7,23.7,30.11,NNW,333,0.0,0.0,78,0.00,,,0.00,LWC V2.00 B2112,2013-03-08 07:14:00,
2013-03-08 02:19:00,29.5,23.5,30.11,NNW,333,0.0,0.0,78,0.00,,,0.00,LWC V2.00 B2112,2013-03-08 07:19:00,
2013-03-08 02:24:00,29.4,23.4,30.11,NNW,333,0.0,0.0,78,0.00,,,0.00,LWC V2.00 B2112,2013-03-08 07:24:00,
2013-03-08 02:29:00,29.4,23.4,30.11,NNW,333,0.0,0.0,78,0.00,,,0.00,LWC V2.00 B2112,2013-03-08 07:29:00,
2013-03-08 02:34:00,29.3,23.6,30.11,NNW,333,0.0,0.0,79,0.00,,,0.00,LWC V2.00 B2112,2013-03-08 07:34:00,
2013-03-08 02:39:00,29.4,23.7,30.11,NNW,333,0.0,0.0,79,0.00,,,0.00,LWC V2.00 B2112,2013-03-08 07:39:00,
2013-03-08 02:44:00,29.4,23.7,30.10,NNW,333,0.0,0.0,79,0.00,,,0.00,LWC V2.00 B2112,2013-03-08 07:44:00,
2013-03-08 02:49:00,29.4,23.7,30.10,NNW,333,0.0,0.0,79,0.00,,,0.00,LWC V2.00 B2112,2013-03-08 07:49:00,
2013-03-08 02:54:00,29.3,23.6,30.10,NNW,333,0.0,0.0,79,0.00,,,0.00,LWC V2.00 B2112,2013-03-08 07:54:00,
2013-03-08 02:59:00,29.3,23.6,30.10,NNW,333,0.0,0.0,79,0.00,,,0.00,LWC V2.00 B2112,2013-03-08 07:59:00,
2013-03-08 03:04:00,29.1,23.4,30.10,NNW,333,0.0,0.0,79,0.00,,,0.00,LWC V2.00 B2112,2013-03-08 08:04:00,
2013-03-08 03:09:00,29.1,23.4,30.10,NNW,333,0.0,0.0,79,0.00,,,0.00,LWC V2.00 B2112,2013-03-08 08:09:00,
2013-03-08 03:14:00,29.1,23.4,30.09,NNW,333,0.0,0.0,79,0.00,,,0.00,LWC V2.00 B2112,2013-03-08 08:14:00,
2013-03-08 03:19:00,29.1,23.4,30.09,NNW,333,0.0,0.0,79,0.00,,,0.00,LWC V2.00 B2112,2013-03-08 08:19:00,
2013-03-08 03:24:00,29.1,23.4,30.09,NNW,333,0.0,0.0,79,0.00,,,0.00,LWC V2.00 B2112,2013-03-08 08:24:00,
2013-03-08 03:29:00,29.1,23.4,30.09,NNW,333,0.0,0.0,79,0.00,,,0.00,LWC V2.00 B2112,2013-03-08 08:29:00,
2013-03-08 03:34:00,29.1,23.4,30.09,NNW,333,0.0,0.0,79,0.00,,,0.00,LWC V2.00 B2112,2013-03-08 08:34:00,
2013-03-08 03:39:00,29.1,23.4,30.09,NNW,333,0.0,0.0,79,0.00,,,0.00,LWC V2.00 B2112,2013-03-08 08:39:00,
2013-03-08 03:44:00,29.0,23.3,30.09,NNW,333,0.0,0.0,79,0.00,,,0.00,LWC V2.00 B2112,2013-03-08 08:44:00,
2013-03-08 03:49:00,28.8,23.1,30.09,NNW,333,0.0,0.0,79,0.00,,,0.00,LWC V2.00 B2112,2013-03-08 08:49:00,
2013-03-08 03:54:00,28.5,23.1,30.09,NNW,333,0.0,0.0,80,0.00,,,0.00,LWC V2.00 B2112,2013-03-08 08:54:00,
2013-03-08 03:59:00,28.5,23.1,30.10,NNW,333,0.0,0.0,80,0.00,,,0.00,LWC V2.00 B2112,2013-03-08 08:59:00,
2013-03-08 04:04:00,28.4,23.3,30.10,NNW,333,0.0,0.0,81,0.00,,,0.00,LWC V2.00 B2112,2013-03-08 09:04:00,
2013-03-08 04:09:00,28.4,23.3,30.10,NNW,333,0.0,0.0,81,0.00,,,0.00,LWC V2.00 B2112,2013-03-08 09:09:00,
2013-03-08 04:14:00,28.5,23.4,30.10,NNW,333,0.0,0.0,81,0.00,,,0.00,LWC V2.00 B2112,2013-03-08 09:14:00,
2013-03-08 04:19:00,28.5,23.4,30.10,NNW,333,0.0,0.0,81,0.00,,,0.00,LWC V2.00 B2112,2013-03-08 09:19:00,
2013-03-08 04:24:00,28.5,23.4,30.10,NNW,333,0.0,0.0,81,0.00,,,0.00,LWC V2.00 B2112,2013-03-08 09:24:00,
2013-03-08 04:29:00,28.5,23.4,30.10,NNW,333,0.0,0.0,81,0.00,,,0.00,LWC V2.00 B2112,2013-03-08 09:29:00,
2013-03-08 04:34:00,28.5,23.4,30.10,NNW,333,0.0,0.0,81,0.00,,,0.00,LWC V2.00 B2112,2013-03-08 09:34:00,
2013-03-08 04:39:00,28.5,23.4,30.10,NNW,333,0.0,0.0,81,0.00,,,0.00,LWC V2.00 B2112,2013-03-08 09:39:00,
2013-03-08 04:44:00,28.4,23.3,30.09,NNW,333,0.0,0.0,81,0.00,,,0.00,LWC V2.00 B2112,2013-03-08 09:44:00,
2013-03-08 04:49:00,28.4,23.3,30.09,NNW,333,0.0,0.0,81,0.00,,,0.00,LWC V2.00 B2112,2013-03-08 09:49:00,
2013-03-08 04:54:00,28.4,23.3,30.09,NNW,333,0.0,0.0,81,0.00,,,0.00,LWC V2.00 B2112,2013-03-08 09:54:00,
2013-03-08 04:59:00,28.2,23.1,30.09,NNW,333,0.0,0.0,81,0.00,,,0.00,LWC V2.00 B2112,2013-03-08 09:59:00,
2013-03-08 05:04:00,28.1,23.0,30.09,NNW,333,0.0,0.0,81,0.00,,,0.00,LWC V2.00 B2112,2013-03-08 10:04:00,
2013-03-08 05:09:00,27.9,23.1,30.09,NNW,333,0.0,0.0,82,0.00,,,0.00,LWC V2.00 B2112,2013-03-08 10:09:00,
2013-03-08 05:14:00,27.8,23.3,30.10,NNW,333,0.0,0.0,83,0.00,,,0.00,LWC V2.00 B2112,2013-03-08 10:14:00,
2013-03-08 05:19:00,27.8,23.3,30.10,NNW,333,0.0,0.0,83,0.00,,,0.00,LWC V2.00 B2112,2013-03-08 10:19:00,
2013-03-08 05:24:00,27.8,23.3,30.10,NNW,333,0.0,0.0,83,0.00,,,0.00,LWC V2.00 B2112,2013-03-08 10:24:00,
2013-03-08 05:29:00,27.8,23.3,30.10,NNW,333,0.0,0.0,83,0.00,,,0.00,LWC V2.00 B2112,2013-03-08 10:29:00,
2013-03-08 05:34:00,27.8,23.3,30.10,NNW,333,0.0,0.0,83,0.00,,,0.00,LWC V2.00 B2112,2013-03-08 10:34:00,
2013-03-08 05:39:00,27.8,23.3,30.10,NNW,333,0.0,0.0,83,0.00,,,0.00,LWC V2.00 B2112,2013-03-08 10:39:00,
2013-03-08 05:44:00,27.9,23.1,30.11,NNW,333,0.0,0.0,82,0.00,,,0.00,LWC V2.00 B2112,2013-03-08 10:44:00,
2013-03-08 05:49:00,27.9,23.1,30.11,NNW,333,0.0,0.0,82,0.00,,,0.00,LWC V2.00 B2112,2013-03-08 10:49:00,
2013-03-08 05:54:00,27.9,23.1,30.11,NNW,333,0.0,0.0,82,0.00,,,0.00,LWC V2.00 B2112,2013-03-08 10:54:00,
2013-03-08 05:59:00,27.8,23.0,30.12,NNW,333,0.0,0.0,82,0.00,,,0.00,LWC V2.00 B2112,2013-03-08 10:59:00,
2013-03-08 06:04:00,27.9,23.1,30.12,NNW,333,0.0,0.0,82,0.00,,,0.00,LWC V2.00 B2112,2013-03-08 11:04:00,
2013-03-08 06:09:00,27.9,23.1,30.12,NNW,333,0.0,0.0,82,0.00,,,0.00,LWC V2.00 B2112,2013-03-08 11:09:00,
2013-03-08 06:14:00,27.9,23.1,30.12,NNW,333,0.0,0.0,82,0.00,,,0.00,LWC V2.00 B2112,2013-03-08 11:14:00,
2013-03-08 06:19:00,27.9,23.1,30.12,NNW,333,0.0,0.0,82,0.00,,,0.00,LWC V2.00 B2112,2013-03-08 11:19:00,
2013-03-08 06:24:00,27.9,23.1,30.12,NNW,333,0.0,0.0,82,0.00,,,0.00,LWC V2.00 B2112,2013-03-08 11:24:00,
2013-03-08 06:29:00,27.8,23.0,30.13,NNW,333,0.0,0.0,82,0.00,,,0.00,LWC V2.00 B2112,2013-03-08 11:29:00,
2013-03-08 06:34:00,27.6,23.1,30.13,NNW,333,0.0,0.0,83,0.00,,,0.00,LWC V2.00 B2112,2013-03-08 11:34:00,
2013-03-08 06:39:00,27.6,23.1,30.13,NNW,333,0.0,0.0,83,0.00,,,0.00,LWC V2.00 B2112,2013-03-08 11:39:00,
2013-03-08 06:44:00,27.6,23.1,30.14,NNW,333,0.0,0.0,83,0.00,,,0.00,LWC V2.00 B2112,2013-03-08 11:44:00,
2013-03-08 06:49:00,27.6,23.1,30.14,NNW,333,0.0,0.0,83,0.00,,,0.00,LWC V2.00 B2112,2013-03-08 11:49:00,
2013-03-08 06:54:00,27.8,23.3,30.14,NNW,333,0.0,0.0,83,0.00,,,0.00,LWC V2.00 B2112,2013-03-08 11:54:00,
2013-03-08 06:59:00,27.8,23.6,30.14,NNW,333,0.0,0.0,84,0.00,,,0.00,LWC V2.00 B2112,2013-03-08 11:59:00,
2013-03-08 07:04:00,27.9,23.7,30.14,NNW,333,0.0,0.0,84,0.00,,,0.00,LWC V2.00 B2112,2013-03-08 12:04:00,
2013-03-08 07:09:00,27.9,23.7,30.14,NNW,333,0.0,0.0,84,0.00,,,0.00,LWC V2.00 B2112,2013-03-08 12:09:00,
2013-03-08 07:14:00,28.2,24.0,30.14,NNW,333,0.0,0.0,84,0.00,,,0.00,LWC V2.00 B2112,2013-03-08 12:14:00,
2013-03-08 07:19:00,28.5,24.3,30.14,NNW,333,0.0,0.0,84,0.00,,,0.00,LWC V2.00 B2112,2013-03-08 12:19:00,
2013-03-08 07:24:00,28.8,24.3,30.14,NNW,333,0.0,0.0,83,0.00,,,0.00,LWC V2.00 B2112,2013-03-08 12:24:00,
2013-03-08 07:29:00,29.0,24.5,30.14,NNW,333,0.0,0.0,83,0.00,,,0.00,LWC V2.00 B2112,2013-03-08 12:29:00,
2013-03-08 07:34:00,29.3,24.5,30.14,NNW,333,0.0,0.0,82,0.00,,,0.00,LWC V2.00 B2112,2013-03-08 12:34:00,
2013-03-08 07:39:00,30.0,24.9,30.14,NNW,333,0.0,0.0,81,0.00,,,0.00,LWC V2.00 B2112,2013-03-08 12:39:00,
2013-03-08 07:44:00,30.7,25.0,30.14,NNW,333,0.0,0.0,79,0.00,,,0.00,LWC V2.00 B2112,2013-03-08 12:44:00,
2013-03-08 07:49:00,31.5,24.8,30.14,NNW,333,0.0,0.0,76,0.00,,,0.00,LWC V2.00 B2112,2013-03-08 12:49:00,
2013-03-08 07:54:00,32.4,25.1,30.14,WNW,283,0.0,0.0,74,0.00,,,0.00,LWC V2.00 B2112,2013-03-08 12:54:00,
2013-03-08 07:59:00,33.1,25.1,30.15,NW,313,0.0,0.0,72,0.00,,,0.00,LWC V2.00 B2112,2013-03-08 12:59:00,
2013-03-08 08:04:00,33.8,25.4,30.15,NW,307,0.0,0.0,71,0.00,,,0.00,LWC V2.00 B2112,2013-03-08 13:04:00,
2013-03-08 08:09:00,34.4,25.3,30.15,NW,309,0.0,0.0,69,0.00,,,0.00,LWC V2.00 B2112,2013-03-08 13:09:00,
2013-03-08 08:14:00,35.2,25.7,30.14,North,349,0.0,0.0,68,0.00,,,0.00,LWC V2.00 B2112,2013-03-08 13:14:00,
2013-03-08 08:19:00,35.8,25.6,30.14,WNW,300,0.0,0.0,66,0.00,,,0.00,LWC V2.00 B2112,2013-03-08 13:19:00,
2013-03-08 08:24:00,36.5,26.2,30.14,NW,322,0.0,0.0,66,0.00,,,0.00,LWC V2.00 B2112,2013-03-08 13:24:00,
2013-03-08 08:29:00,37.0,26.0,30.15,NNW,328,0.0,0.0,64,0.00,,,0.00,LWC V2.00 B2112,2013-03-08 13:29:00,
2013-03-08 08:34:00,37.6,26.5,30.15,WNW,303,0.0,0.0,64,0.00,,,0.00,LWC V2.00 B2112,2013-03-08 13:34:00,
2013-03-08 08:39:00,38.3,26.4,30.15,WSW,244,0.0,0.0,62,0.00,,,0.00,LWC V2.00 B2112,2013-03-08 13:39:00,
2013-03-08 08:44:00,38.9,26.6,30.15,NW,313,0.0,4.0,61,0.00,,,0.00,LWC V2.00 B2112,2013-03-08 13:44:00,
2013-03-08 08:49:00,39.6,27.3,30.15,WNW,283,0.0,1.0,61,0.00,,,0.00,LWC V2.00 B2112,2013-03-08 13:49:00,
2013-03-08 08:54:00,40.3,26.7,30.15,NNW,338,0.0,0.0,58,0.00,,,0.00,LWC V2.00 B2112,2013-03-08 13:54:00,
2013-03-08 08:59:00,41.1,27.5,30.15,North,359,0.0,3.0,58,0.00,,,0.00,LWC V2.00 B2112,2013-03-08 13:59:00,
2013-03-08 09:04:00,41.8,27.7,30.15,WNW,302,0.0,0.0,57,0.00,,,0.00,LWC V2.00 B2112,2013-03-08 14:04:00,
2013-03-08 09:09:00,42.6,27.6,30.15,North,11,0.0,0.0,55,0.00,,,0.00,LWC V2.00 B2112,2013-03-08 14:09:00,
2013-03-08 09:14:00,42.9,26.5,30.15,North,1,0.0,12.0,52,0.00,,,0.00,LWC V2.00 B2112,2013-03-08 14:14:00,
2013-03-08 09:19:00,43.3,27.8,30.15,North,354,0.0,3.0,54,0.00,,,0.00,LWC V2.00 B2112,2013-03-08 14:19:00,
2013-03-08 09:24:00,43.9,27.9,30.15,West,269,0.0,6.0,53,0.00,,,0.00,LWC V2.00 B2112,2013-03-08 14:24:00,
2013-03-08 09:29:00,44.1,26.2,30.14,North,1,0.0,12.0,49,0.00,,,0.00,LWC V2.00 B2112,2013-03-08 14:29:00,
2013-03-08 09:34:00,44.3,27.3,30.14,North,359,0.0,10.0,51,0.00,,,0.00,LWC V2.00 B2112,2013-03-08 14:34:00,
2013-03-08 09:39:00,44.9,26.4,30.14,NW,325,4.0,7.0,48,0.00,,,0.00,LWC V2.00 B2112,2013-03-08 14:39:00,
2013-03-08 09:44:00,44.8,27.8,30.15,North,359,0.0,0.0,51,0.00,,,0.00,LWC V2.00 B2112,2013-03-08 14:44:00,
2013-03-08 09:49:00,45.1,26.6,30.15,North,359,0.0,0.0,48,0.00,,,0.00,LWC V2.00 B2112,2013-03-08 14:49:00,
2013-03-08 09:54:00,45.4,26.4,30.15,NNW,337,0.0,11.0,47,0.00,,,0.00,LWC V2.00 B2112,2013-03-08 14:54:00,
2013-03-08 09:59:00,45.4,25.8,30.15,NNW,348,0.0,0.0,46,0.00,,,0.00,LWC V2.00 B2112,2013-03-08 14:59:00,
2013-03-08 10:04:00,45.7,24.5,30.15,NW,309,0.0,16.0,43,0.00,,,0.00,LWC V2.00 B2112,2013-03-08 15:04:00,
2013-03-08 10:09:00,46.0,24.8,30.15,WNW,296,0.0,6.0,43,0.00,,,0.00,LWC V2.00 B2112,2013-03-08 15:09:00,
2013-03-08 10:14:00,46.0,23.6,30.15,North,358,0.0,0.0,41,0.00,,,0.00,LWC V2.00 B2112,2013-03-08 15:14:00,
2013-03-08 10:19:00,46.1,24.3,30.15,WNW,292,0.0,4.0,42,0.00,,,0.00,LWC V2.00 B2112,2013-03-08 15:19:00,
2013-03-08 10:24:00,46.4,25.1,30.15,NE,35,0.0,0.0,43,0.00,,,0.00,LWC V2.00 B2112,2013-03-08 15:24:00,
2013-03-08 10:29:00,46.7,22.5,30.14,North,350,0.0,14.0,38,0.00,,,0.00,LWC V2.00 B2112,2013-03-08 15:29:00,
2013-03-08 10:34:00,46.7,23.1,30.14,NNW,338,0.0,0.0,39,0.00,,,0.00,LWC V2.00 B2112,2013-03-08 15:34:00,
2013-03-08 10:39:00,46.8,21.9,30.14,NW,304,0.0,6.0,37,0.00,,,0.00,LWC V2.00 B2112,2013-03-08 15:39:00,
2013-03-08 10:44:00,46.8,23.8,30.14,WNW,295,1.0,5.0,40,0.00,,,0.00,LWC V2.00 B2112,2013-03-08 15:44:00,
2013-03-08 10:49:00,47.3,23.0,30.14,NW,326,0.0,9.0,38,0.00,,,0.00,LWC V2.00 B2112,2013-03-08 15:49:00,
2013-03-08 10:54:00,47.6,22.6,30.14,East,91,0.0,0.0,37,0.00,,,0.00,LWC V2.00 B2112,2013-03-08 15:54:00,
2013-03-08 10:59:00,48.2,25.6,30.13,North,11,0.0,5.0,41,0.00,,,0.00,LWC V2.00 B2112,2013-03-08 15:59:00,
2013-03-08 11:04:00,48.0,25.4,30.13,WNW,295,0.0,12.0,41,0.00,,,0.00,LWC V2.00 B2112,2013-03-08 16:04:00,
2013-03-08 11:14:00,48.8,23.7,30.12,NNW,330,0.0,7.0,37,0.00,,,0.00,LWC V2.00 B2112,2013-03-08 16:14:00,
2013-03-08 11:19:00,48.5,24.7,30.12,North,359,0.0,7.0,39,0.00,,,0.00,LWC V2.00 B2112,2013-03-08 16:19:00,
2013-03-08 11:24:00,48.6,24.2,30.12,North,1,6.0,12.0,38,0.00,,,0.00,LWC V2.00 B2112,2013-03-08 16:24:00,
2013-03-08 11:29:00,48.8,26.7,30.11,NNW,338,0.0,10.0,42,0.00,,,0.00,LWC V2.00 B2112,2013-03-08 16:29:00,
2013-03-08 11:34:00,48.8,24.3,30.11,NNE,21,0.0,6.0,38,0.00,,,0.00,LWC V2.00 B2112,2013-03-08 16:34:00,
2013-03-08 11:39:00,48.5,25.9,30.11,North,359,0.0,14.0,41,0.00,,,0.00,LWC V2.00 B2112,2013-03-08 16:39:00,
2013-03-08 11:44:00,49.2,26.5,30.12,West,262,0.0,0.0,41,0.00,,,0.00,LWC V2.00 B2112,2013-03-08 16:44:00,
2013-03-08 11:49:00,49.4,24.9,30.12,WNW,298,0.0,0.0,38,0.00,,,0.00,LWC V2.00 B2112,2013-03-08 16:49:00,
2013-03-08 11:54:00,49.5,23.7,30.12,NW,307,14.0,14.0,36,0.00,,,0.00,LWC V2.00 B2112,2013-03-08 16:54:00,
2013-03-08 11:59:00,49.5,23.0,30.11,ENE,71,0.0,10.0,35,0.00,,,0.00,LWC V2.00 B2112,2013-03-08 16:59:00,
2013-03-08 12:04:00,49.8,23.3,30.11,North,1,0.0,10.0,35,0.00,,,0.00,LWC V2.00 B2112,2013-03-08 17:04:00,
2013-03-08 12:09:00,49.5,22.3,30.11,North,354,1.0,14.0,34,0.00,,,0.00,LWC V2.00 B2112,2013-03-08 17:09:00,
2013-03-08 12:14:00,49.4,21.5,30.11,NNW,330,0.0,2.0,33,0.00,,,0.00,LWC V2.00 B2112,2013-03-08 17:14:00,
2013-03-08 12:19:00,49.4,22.2,30.11,North,4,4.0,9.0,34,0.00,,,0.00,LWC V2.00 B2112,2013-03-08 17:19:00,
2013-03-08 12:24:00,49.5,21.6,30.11,WNW,302,0.0,9.0,33,0.00,,,0.00,LWC V2.00 B2112,2013-03-08 17:24:00,
2013-03-08 12:29:00,49.6,23.1,30.10,North,0,0.0,11.0,35,0.00,,,0.00,LWC V2.00 B2112,2013-03-08 17:29:00,
2013-03-08 12:34:00,50.4,20.9,30.10,West,262,0.0,11.0,31,0.00,,,0.00,LWC V2.00 B2112,2013-03-08 17:34:00,
2013-03-08 12:39:00,50.7,23.4,30.10,NW,314,5.0,12.0,34,0.00,,,0.00,LWC V2.00 B2112,2013-03-08 17:39:00,
2013-03-08 12:44:00,50.5,21.8,30.09,North,354,3.0,14.0,32,0.00,,,0.00,LWC V2.00 B2112,2013-03-08 17:44:00,
2013-03-08 12:49:00,50.7,24.1,30.09,North,7,0.0,0.0,35,0.00,,,0.00,LWC V2.00 B2112,2013-03-08 17:49:00,
2013-03-08 12:54:00,51.3,21.7,30.09,North,0,0.0,9.0,31,0.00,,,0.00,LWC V2.00 B2112,2013-03-08 17:54:00,
2013-03-08 13:04:00,51.7,22.1,30.08,WSW,252,0.0,0.0,31,0.00,,,0.00,LWC V2.00 B2112,2013-03-08 18:04:00,
2013-03-08 13:09:00,52.0,23.1,30.08,SSW,193,0.0,10.0,32,0.00,,,0.00,LWC V2.00 B2112,2013-03-08 18:09:00,
2013-03-08 13:14:00,51.9,22.2,30.08,NW,307,1.0,7.0,31,0.00,,,0.00,LWC V2.00 B2112,2013-03-08 18:14:00,
2013-03-08 13:19:00,51.6,23.4,30.08,North,354,0.0,9.0,33,0.00,,,0.00,LWC V2.00 B2112,2013-03-08 18:19:00,
2013-03-08 13:24:00,51.9,22.2,30.08,NW,311,0.0,1.0,31,0.00,,,0.00,LWC V2.00 B2112,2013-03-08 18:24:00,
2013-03-08 13:29:00,51.6,22.0,30.07,NW,322,1.0,8.0,31,0.00,,,0.00,LWC V2.00 B2112,2013-03-08 18:29:00,
2013-03-08 13:34:00,51.3,22.5,30.07,NW,309,0.0,0.0,32,0.00,,,0.00,LWC V2.00 B2112,2013-03-08 18:34:00,
2013-03-08 13:39:00,51.7,22.8,30.07,NW,318,0.0,7.0,32,0.00,,,0.00,LWC V2.00 B2112,2013-03-08 18:39:00,
2013-03-08 13:49:00,51.6,22.7,30.06,North,2,0.0,4.0,32,0.00,,,0.00,LWC V2.00 B2112,2013-03-08 18:49:00,
2013-03-08 13:54:00,51.7,21.3,30.06,NW,306,0.0,4.0,30,0.00,,,0.00,LWC V2.00 B2112,2013-03-08 18:54:00,
2013-03-08 13:59:00,51.9,22.2,30.05,North,359,0.0,7.0,31,0.00,,,0.00,LWC V2.00 B2112,2013-03-08 18:59:00,
2013-03-08 14:04:00,52.0,21.5,30.05,West,276,0.0,10.0,30,0.00,,,0.00,LWC V2.00 B2112,2013-03-08 19:04:00,
2013-03-08 14:09:00,52.2,22.5,30.05,West,278,0.0,4.0,31,0.00,,,0.00,LWC V2.00 B2112,2013-03-08 19:09:00,
2013-03-08 14:14:00,52.9,21.5,30.05,North,350,4.0,5.0,29,0.00,,,0.00,LWC V2.00 B2112,2013-03-08 19:14:00,
2013-03-08 14:19:00,52.8,23.8,30.05,WNW,290,0.0,11.0,32,0.00,,,0.00,LWC V2.00 B2112,2013-03-08 19:19:00,
2013-03-08 14:24:00,52.6,20.4,30.05,NW,324,2.0,10.0,28,0.00,,,0.00,LWC V2.00 B2112,2013-03-08 19:24:00,
2013-03-08 14:29:00,52.6,22.8,30.05,WNW,288,13.0,13.0,31,0.00,,,0.00,LWC V2.00 B2112,2013-03-08 19:29:00,
2013-03-08 14:34:00,52.9,23.1,30.05,North,352,0.0,5.0,31,0.00,,,0.00,LWC V2.00 B2112,2013-03-08 19:34:00,
2013-03-08 14:39:00,53.1,23.3,30.05,WSW,243,0.0,6.0,31,0.00,,,0.00,LWC V2.00 B2112,2013-03-08 19:39:00,
2013-03-08 14:44:00,53.1,22.5,30.05,WNW,302,0.0,5.0,30,0.00,,,0.00,LWC V2.00 B2112,2013-03-08 19:44:00,
2013-03-08 14:49:00,53.1,22.5,30.05,West,259,7.0,7.0,30,0.00,,,0.00,LWC V2.00 B2112,2013-03-08 19:49:00,
2013-03-08 14:54:00,53.5,25.1,30.05,NW,304,0.0,0.0,33,0.00,,,0.00,LWC V2.00 B2112,2013-03-08 19:54:00,
2013-03-08 14:59:00,53.8,21.5,30.05,WNW,293,0.0,10.0,28,0.00,,,0.00,LWC V2.00 B2112,2013-03-08 19:59:00,
2013-03-08 15:04:00,53.8,23.9,30.05,WNW,300,0.0,0.0,31,0.00,,,0.00,LWC V2.00 B2112,2013-03-08 20:04:00,
2013-03-08 15:09:00,54.1,24.1,30.05,WNW,299,3.0,9.0,31,0.00,,,0.00,LWC V2.00 B2112,2013-03-08 20:09:00,
2013-03-08 15:14:00,54.1,21.7,30.05,WNW,297,0.0,10.0,28,0.00,,,0.00,LWC V2.00 B2112,2013-03-08 20:14:00,
2013-03-08 15:19:00,53.8,22.3,30.05,WNW,302,0.0,10.0,29,0.00,,,0.00,LWC V2.00 B2112,2013-03-08 20:19:00,
2013-03-08 15:24:00,54.1,22.6,30.05,NNW,340,0.0,3.0,29,0.00,,,0.00,LWC V2.00 B2112,2013-03-08 20:24:00,
2013-03-08 15:29:00,54.1,24.9,30.05,NNW,337,0.0,1.0,32,0.00,,,0.00,LWC V2.00 B2112,2013-03-08 20:29:00,
2013-03-08 15:34:00,54.4,24.4,30.05,NE,39,0.0,0.0,31,0.00,,,0.00,LWC V2.00 B2112,2013-03-08 20:34:00,
2013-03-08 15:44:00,54.4,22.8,30.05,NW,307,2.0,6.0,29,0.00,,,0.00,LWC V2.00 B2112,2013-03-08 20:44:00,
2013-03-08 15:49:00,54.2,23.5,30.05,WNW,289,4.0,4.0,30,0.00,,,0.00,LWC V2.00 B2112,2013-03-08 20:49:00,
2013-03-08 15:54:00,54.2,23.5,30.05,WNW,303,0.0,4.0,30,0.00,,,0.00,LWC V2.00 B2112,2013-03-08 20:54:00,
2013-03-08 15:59:00,54.1,23.4,30.06,NNW,347,0.0,2.0,30,0.00,,,0.00,LWC V2.00 B2112,2013-03-08 20:59:00,
2013-03-08 16:04:00,54.1,23.4,30.06,NNW,347,0.0,0.0,30,0.00,,,0.00,LWC V2.00 B2112,2013-03-08 21:04:00,
2013-03-08 16:09:00,54.4,24.4,30.06,North,0,0.0,0.0,31,0.00,,,0.00,LWC V2.00 B2112,2013-03-08 21:09:00,
2013-03-08 16:14:00,55.1,25.0,30.06,WNW,294,0.0,0.0,31,0.00,,,0.00,LWC V2.00 B2112,2013-03-08 21:14:00,
2013-03-08 16:19:00,55.0,21.6,30.06,WNW,290,2.0,11.0,27,0.00,,,0.00,LWC V2.00 B2112,2013-03-08 21:19:00,
2013-03-08 16:24:00,54.5,22.1,30.06,WNW,299,0.0,6.0,28,0.00,,,0.00,LWC V2.00 B2112,2013-03-08 21:24:00,
2013-03-08 16:29:00,54.2,23.5,30.06,WNW,283,0.0,0.0,30,0.00,,,0.00,LWC V2.00 B2112,2013-03-08 21:29:00,
2013-03-08 16:34:00,54.2,23.5,30.06,SSW,195,0.0,6.0,30,0.00,,,0.00,LWC V2.00 B2112,2013-03-08 21:34:00,
2013-03-08 16:39:00,54.1,22.6,30.06,SSW,195,9.0,9.0,29,0.00,,,0.00,LWC V2.00 B2112,2013-03-08 21:39:00,
2013-03-08 16:44:00,53.9,23.2,30.06,North,351,0.0,7.0,30,0.00,,,0.00,LWC V2.00 B2112,2013-03-08 21:44:00,
2013-03-08 16:49:00,53.6,20.4,30.06,WNW,294,0.0,14.0,27,0.00,,,0.00,LWC V2.00 B2112,2013-03-08 21:49:00,
2013-03-08 16:54:00,53.5,22.8,30.06,North,359,0.0,4.0,30,0.00,,,0.00,LWC V2.00 B2112,2013-03-08 21:54:00,
2013-03-08 16:59:00,53.6,22.9,30.07,NW,309,0.0,0.0,30,0.00,,,0.00,LWC V2.00 B2112,2013-03-08 21:59:00,
2013-03-08 17:04:00,53.5,22.8,30.07,WNW,301,6.0,6.0,30,0.00,,,0.00,LWC V2.00 B2112,2013-03-08 22:04:00,
2013-03-08 17:09:00,53.3,22.7,30.07,WNW,288,0.0,6.0,30,0.00,,,0.00,LWC V2.00 B2112,2013-03-08 22:09:00,
2013-03-08 17:14:00,53.1,20.9,30.08,WNW,285,0.0,10.0,28,0.00,,,0.00,LWC V2.00 B2112,2013-03-08 22:14:00,
2013-03-08 17:19:00,52.9,22.3,30.08,NW,304,0.0,0.0,30,0.00,,,0.00,LWC V2.00 B2112,2013-03-08 22:19:00,
2013-03-08 17:24:00,52.6,22.1,30.08,NW,304,2.0,3.0,30,0.00,,,0.00,LWC V2.00 B2112,2013-03-08 22:24:00,
2013-03-08 17:29:00,52.3,22.6,30.08,West,272,11.0,13.0,31,0.00,,,0.00,LWC V2.00 B2112,2013-03-08 22:29:00,
2013-03-08 17:34:00,52.0,22.3,30.08,NW,310,0.0,0.0,31,0.00,,,0.00,LWC V2.00 B2112,2013-03-08 22:34:00,
2013-03-08 17:39:00,51.9,23.0,30.08,North,354,0.0,0.0,32,0.00,,,0.00,LWC V2.00 B2112,2013-03-08 22:39:00,
2013-03-08 17:44:00,51.6,22.0,30.08,WNW,297,0.0,0.0,31,0.00,,,0.00,LWC V2.00 B2112,2013-03-08 22:44:00,
2013-03-08 17:49:00,51.4,22.5,30.08,NNW,338,0.0,0.0,32,0.00,,,0.00,LWC V2.00 B2112,2013-03-08 22:49:00,
2013-03-08 17:54:00,51.3,23.2,30.08,West,276,0.0,0.0,33,0.00,,,0.00,LWC V2.00 B2112,2013-03-08 22:54:00,
2013-03-08 17:59:00,51.0,22.2,30.08,North,355,0.0,6.0,32,0.00,,,0.00,LWC V2.00 B2112,2013-03-08 22:59:00,
2013-03-08 18:04:00,50.8,22.7,30.08,West,276,0.0,0.0,33,0.00,,,0.00,LWC V2.00 B2112,2013-03-08 23:04:00,
2013-03-08 18:09:00,50.5,23.2,30.08,NNW,335,0.0,0.0,34,0.00,,,0.00,LWC V2.00 B2112,2013-03-08 23:09:00,
2013-03-08 18:14:00,50.4,23.8,30.09,NW,305,0.0,0.0,35,0.00,,,0.00,LWC V2.00 B2112,2013-03-08 23:14:00,
2013-03-08 18:19:00,49.9,24.0,30.09,NW,304,0.0,0.0,36,0.00,,,0.00,LWC V2.00 B2112,2013-03-08 23:19:00,
2013-03-08 18:24:00,49.4,24.2,30.09,NW,305,0.0,0.0,37,0.00,,,0.00,LWC V2.00 B2112,2013-03-08 23:24:00,
2013-03-08 18:29:00,48.6,24.8,30.10,NW,305,0.0,0.0,39,0.00,,,0.00,LWC V2.00 B2112,2013-03-08 23:29:00,
2013-03-08 18:34:00,48.2,24.4,30.10,NW,305,0.0,0.0,39,0.00,,,0.00,LWC V2.00 B2112,2013-03-08 23:34:00,
2013-03-08 18:39:00,47.7,24.6,30.10,NW,304,0.0,0.0,40,0.00,,,0.00,LWC V2.00 B2112,2013-03-08 23:39:00,
2013-03-08 18:44:00,47.3,24.8,30.10,NW,304,0.0,0.0,41,0.00,,,0.00,LWC V2.00 B2112,2013-03-08 23:44:00,
2013-03-08 18:49:00,46.7,24.8,30.10,NW,304,0.0,0.0,42,0.00,,,0.00,LWC V2.00 B2112,2013-03-08 23:49:00,
2013-03-08 18:54:00,46.2,25.0,30.10,NW,304,0.0,0.0,43,0.00,,,0.00,LWC V2.00 B2112,2013-03-08 23:54:00,
2013-03-08 18:59:00,45.7,24.5,30.12,NW,304,0.0,0.0,43,0.00,,,0.00,LWC V2.00 B2112,2013-03-08 23:59:00,
2013-03-08 19:04:00,45.2,25.1,30.12,NW,304,0.0,0.0,45,0.00,,,0.00,LWC V2.00 B2112,2013-03-09 00:04:00,
2013-03-08 19:09:00,44.6,25.6,30.12,NW,304,0.0,0.0,47,0.00,,,0.00,LWC V2.00 B2112,2013-03-09 00:09:00,
2013-03-08 19:14:00,44.2,25.3,30.12,NW,304,0.0,0.0,47,0.00,,,0.00,LWC V2.00 B2112,2013-03-09 00:14:00,
2013-03-08 19:19:00,43.9,24.5,30.12,NW,304,0.0,0.0,46,0.00,,,0.00,LWC V2.00 B2112,2013-03-09 00:19:00,
2013-03-08 19:24:00,43.6,25.2,30.12,NW,304,0.0,0.0,48,0.00,,,0.00,LWC V2.00 B2112,2013-03-09 00:24:00,
2013-03-08 19:29:00,43.3,25.9,30.13,NW,304,0.0,0.0,50,0.00,,,0.00,LWC V2.00 B2112,2013-03-09 00:29:00,
2013-03-08 19:34:00,42.9,25.6,30.13,NW,304,0.0,0.0,50,0.00,,,0.00,LWC V2.00 B2112,2013-03-09 00:34:00,
2013-03-08 19:39:00,42.6,25.8,30.13,NW,304,0.0,0.0,51,0.00,,,0.00,LWC V2.00 B2112,2013-03-09 00:39:00,
2013-03-08 19:44:00,42.2,26.3,30.13,NW,304,0.0,0.0,53,0.00,,,0.00,LWC V2.00 B2112,2013-03-09 00:44:00,
2013-03-08 19:49:00,42.1,26.2,30.13,NW,304,0.0,0.0,53,0.00,,,0.00,LWC V2.00 B2112,2013-03-09 00:49:00,
2013-03-08 19:54:00,41.8,26.4,30.13,NW,304,0.0,0.0,54,0.00,,,0.00,LWC V2.00 B2112,2013-03-09 00:54:00,
2013-03-08 19:59:00,41.5,25.7,30.15,NW,304,0.0,0.0,53,0.00,,,0.00,LWC V2.00 B2112,2013-03-09 00:59:00,
2013-03-08 20:04:00,41.3,25.5,30.15,NW,304,0.0,0.0,53,0.00,,,0.00,LWC V2.00 B2112,2013-03-09 01:04:00,
2013-03-08 20:09:00,41.2,25.4,30.15,NW,304,0.0,0.0,53,0.00,,,0.00,LWC V2.00 B2112,2013-03-09 01:09:00,
2013-03-08 20:14:00,41.2,25.4,30.15,NW,304,0.0,0.0,53,0.00,,,0.00,LWC V2.00 B2112,2013-03-09 01:14:00,
2013-03-08 20:19:00,41.5,25.2,30.15,NW,304,0.0,0.0,52,0.00,,,0.00,LWC V2.00 B2112,2013-03-09 01:19:00,
2013-03-08 20:24:00,42.1,24.8,30.15,NW,306,0.0,0.0,50,0.00,,,0.00,LWC V2.00 B2112,2013-03-09 01:24:00,
2013-03-08 20:29:00,42.8,24.5,30.15,NW,306,0.0,0.0,48,0.00,,,0.00,LWC V2.00 B2112,2013-03-09 01:29:00,
2013-03-08 20:34:00,43.3,25.4,30.15,NE,55,0.0,0.0,49,0.00,,,0.00,LWC V2.00 B2112,2013-03-09 01:34:00,
2013-03-08 20:39:00,43.6,25.2,30.15,SE,140,0.0,0.0,48,0.00,,,0.00,LWC V2.00 B2112,2013-03-09 01:39:00,
2013-03-08 20:44:00,43.9,25.5,30.14,East,79,0.0,0.0,48,0.00,,,0.00,LWC V2.00 B2112,2013-03-09 01:44:00,
2013-03-08 20:49:00,44.1,25.7,30.14,ENE,71,0.0,0.0,48,0.00,,,0.00,LWC V2.00 B2112,2013-03-09 01:49:00,
2013-03-08 20:54:00,44.1,25.7,30.14,NE,35,0.0,0.0,48,0.00,,,0.00,LWC V2.00 B2112,2013-03-09 01:54:00,
2013-03-08 20:59:00,43.9,26.0,30.14,NE,45,0.0,0.0,49,0.00,,,0.00,LWC V2.00 B2112,2013-03-09 01:59:00,
2013-03-08 21:04:00,43.8,25.4,30.14,ENE,65,0.0,0.0,48,0.00,,,0.00,LWC V2.00 B2112,2013-03-09 02:04:00,
2013-03-08 21:09:00,43.9,26.0,30.14,NW,311,0.0,0.0,49,0.00,,,0.00,LWC V2.00 B2112,2013-03-09 02:09:00,
2013-03-08 21:14:00,43.9,25.5,30.15,ENE,63,0.0,0.0,48,0.00,,,0.00,LWC V2.00 B2112,2013-03-09 02:14:00,
2013-03-08 21:19:00,43.6,25.7,30.15,NE,53,0.0,0.0,49,0.00,,,0.00,LWC V2.00 B2112,2013-03-09 02:19:00,
2013-03-08 21:24:00,43.5,26.1,30.15,SE,131,0.0,0.0,50,0.00,,,0.00,LWC V2.00 B2112,2013-03-09 02:24:00,
2013-03-08 21:29:00,43.3,25.9,30.16,NE,55,0.0,0.0,50,0.00,,,0.00,LWC V2.00 B2112,2013-03-09 02:29:00,
2013-03-08 21:34:00,43.2,25.8,30.16,East,81,0.0,0.0,50,0.00,,,0.00,LWC V2.00 B2112,2013-03-09 02:34:00,
2013-03-08 21:39:00,43.1,25.7,30.16,NNE,32,0.0,0.0,50,0.00,,,0.00,LWC V2.00 B2112,2013-03-09 02:39:00,
2013-03-08 21:44:00,42.8,25.9,30.16,NNE,32,0.0,0.0,51,0.00,,,0.00,LWC V2.00 B2112,2013-03-09 02:44:00,
2013-03-08 21:49:00,42.6,25.8,30.16,NE,46,0.0,0.0,51,0.00,,,0.00,LWC V2.00 B2112,2013-03-09 02:49:00,
2013-03-08 21:54:00,42.5,26.1,30.16,North,11,0.0,0.0,52,0.00,,,0.00,LWC V2.00 B2112,2013-03-09 02:54:00,
2013-03-08 21:59:00,42.3,25.9,30.17,North,6,0.0,0.0,52,0.00,,,0.00,LWC V2.00 B2112,2013-03-09 02:59:00,
2013-03-08 22:04:00,42.2,26.3,30.17,North,6,0.0,0.0,53,0.00,,,0.00,LWC V2.00 B2112,2013-03-09 03:04:00,
2013-03-08 22:09:00,41.9,26.0,30.17,North,6,0.0,0.0,53,0.00,,,0.00,LWC V2.00 B2112,2013-03-09 03:09:00,
2013-03-08 22:14:00,41.5,26.1,30.17,North,6,0.0,0.0,54,0.00,,,0.00,LWC V2.00 B2112,2013-03-09 03:14:00,
2013-03-08 22:19:00,41.3,25.9,30.17,North,1,0.0,0.0,54,0.00,,,0.00,LWC V2.00 B2112,2013-03-09 03:19:00,
2013-03-08 22:24:00,41.2,25.8,30.17,NW,316,0.0,0.0,54,0.00,,,0.00,LWC V2.00 B2112,2013-03-09 03:24:00,
2013-03-08 22:29:00,41.2,25.8,30.17,NW,326,0.0,0.0,54,0.00,,,0.00,LWC V2.00 B2112,2013-03-09 03:29:00,
2013-03-08 22:34:00,41.2,25.8,30.17,NNW,327,0.0,0.0,54,0.00,,,0.00,LWC V2.00 B2112,2013-03-09 03:34:00,
2013-03-08 22:39:00,41.2,25.8,30.17,SSE,155,0.0,0.0,54,0.00,,,0.00,LWC V2.00 B2112,2013-03-09 03:39:00,
2013-03-08 22:44:00,41.1,26.2,30.18,SW,231,0.0,0.0,55,0.00,,,0.00,LWC V2.00 B2112,2013-03-09 03:44:00,
2013-03-08 22:49:00,40.8,25.9,30.18,NW,317,0.0,0.0,55,0.00,,,0.00,LWC V2.00 B2112,2013-03-09 03:49:00,
2013-03-08 22:54:00,40.6,26.1,30.18,NW,317,0.0,0.0,56,0.00,,,0.00,LWC V2.00 B2112,2013-03-09 03:54:00,
2013-03-08 22:59:00,40.5,26.1,30.19,NW,317,0.0,0.0,56,0.00,,,0.00,LWC V2.00 B2112,2013-03-09 03:59:00,
2013-03-08 23:04:00,40.3,25.9,30.19,NW,317,0.0,0.0,56,0.00,,,0.00,LWC V2.00 B2112,2013-03-09 04:04:00,
2013-03-08 23:09:00,40.1,26.1,30.19,NW,317,0.0,0.0,57,0.00,,,0.00,LWC V2.00 B2112,2013-03-09 04:09:00,
2013-03-08 23:14:00,39.6,26.1,30.19,NW,317,0.0,0.0,58,0.00,,,0.00,LWC V2.00 B2112,2013-03-09 04:14:00,
2013-03-08 23:19:00,39.5,26.4,30.19,NW,317,0.0,0.0,59,0.00,,,0.00,LWC V2.00 B2112,2013-03-09 04:19:00,
2013-03-08 23:24:00,39.2,26.1,30.19,NW,317,0.0,0.0,59,0.00,,,0.00,LWC V2.00 B2112,2013-03-09 04:24:00,
2013-03-08 23:29:00,39.1,26.4,30.19,NW,317,0.0,0.0,60,0.00,,,0.00,LWC V2.00 B2112,2013-03-09 04:29:00,
2013-03-08 23:34:00,38.8,26.1,30.19,NW,317,0.0,0.0,60,0.00,,,0.00,LWC V2.00 B2112,2013-03-09 04:34:00,
2013-03-08 23:39:00,38.5,26.6,30.19,NW,317,0.0,0.0,62,0.00,,,0.00,LWC V2.00 B2112,2013-03-09 04:39:00,
2013-03-08 23:44:00,38.2,26.3,30.19,NW,317,0.0,0.0,62,0.00,,,0.00,LWC V2.00 B2112,2013-03-09 04:44:00,
2013-03-08 23:49:00,37.9,26.1,30.19,NW,317,0.0,0.0,62,0.00,,,0.00,LWC V2.00 B2112,2013-03-09 04:49:00,
2013-03-08 23:54:00,37.9,26.1,30.19,NW,317,0.0,0.0,62,0.00,,,0.00,LWC V2.00 B2112,2013-03-09 04:54:00,
2013-03-08 23:59:00,38.2,26.0,30.18,NW,317,0.0,0.0,61,0.00,,,0.00,LWC V2.00 B2112,2013-03-09 04:59:00,